Find Starlink 37347

NORAD ID: 68747 Int'l Des: 2026-082 Owner: SPXS Country: US Constellation: starlink operational
LEOCIRCULARRETROGRADE

リアルタイム位置

3D地球を読み込み中...

Starlink 37347について

説明を読み込み中...

次回通過

Passes for default location (London). Set your location on the main map for personalized predictions.

高度履歴

Loading altitude history...

軌道要素

1 68747C 26082U 26105.41715278 .00351540 00000+0 40984-3 0 1053
2 68747 97.2876 326.8396 0010798 268.5930 107.7810 16.08477379 15
Epoch: Apr 15, 2026 • Age: 19 hours

現在のステータス

高度 270.0 km
速度 7.75 km/s
衛星直下点 -77.27°S, 164.92°W
打ち上げ日 Apr 15, 2026
運用期間 1 days
タイプ internet

技術仕様

分類 Payload
質量 575.00 kg
乾燥質量 530.00 kg
総質量 575.00 kg
長さ 0.30 m
直径 4.10 m
スパン 29.00 m
形状 Box + pan
製造者 SPXS
バスタイプ Starlink V2MO
フェーズステータス In Orbit
所有者/国 SPXS/US

Most Searched